DW8548 Weather Reports


Display with metric or nautical units.
time (UTC)temp
F
wind
direction
speed
MPH
gust
MPH
rain 1hr
in
rain 24hr
in
rain mn
in
humidity
%
barometer
mb
20240423213056 57 258 0.0 4.0 0.00 0.00 0.00 55 1027.2
20240423211619 57 315 0.0 4.0 0.00 0.00 0.00 55 1027.1
20240423210053 58 0 1.0 4.0 0.00 0.00 0.00 54 1027.3
20240423204612 57 262 0.0 2.0 0.00 0.00 0.00 54 1027.4
20240423203053 58 261 0.0 3.0 0.00 0.00 0.00 54 1027.5
20240423201556 58 0 0.0 3.0 0.00 0.00 0.00 54 1027.3
20240423200100 58 246 1.0 4.0 0.00 0.00 0.00 54 1027.3
20240423194557 57 288 0.0 3.0 0.00 0.00 0.00 54 1027.2
20240423193054 58 0 0.0 3.0 0.00 0.00 0.00 54 1027.1
20240423191557 57 229 0.0 3.0 0.00 0.00 0.00 55 1027.3
20240423190110 58 5 0.0 3.0 0.00 0.00 0.00 54 1027.3
20240423184601 58 0 0.0 3.0 0.00 0.00 0.00 54 1027.8
20240423183059 58 250 0.0 3.0 0.00 0.00 0.00 54 1027.6
20240423181554 58 241 0.0 3.0 0.00 0.00 0.00 54 1027.4
20240423180059 58 0 0.0 3.0 0.00 0.00 0.00 54 1027.6
20240423174553 58 0 0.0 3.0 0.00 0.00 0.00 54 1027.7
20240423173053 58 0 0.0 2.0 0.00 0.00 0.00 53 1027.7
20240423171554 59 271 0.0 2.0 0.00 0.00 0.00 53 1028.0
20240423170053 59 230 0.0 3.0 0.00 0.00 0.00 53 1028.0
20240423164551 59 297 0.0 3.0 0.00 0.00 0.00 53 1027.9
20240423163122 60 263 0.0 3.0 0.00 0.00 0.00 52 1027.9
20240423161551 60 262 0.0 3.0 0.00 0.00 0.00 52 1027.9
20240423160059 60 286 0.0 3.0 0.00 0.00 0.00 52 1027.8
20240423154606 60 0 1.0 4.0 0.00 0.00 0.00 51 1027.7
20240423153054 61 0 0.0 3.0 0.00 0.00 0.00 50 1027.7
20240423151559 61 0 0.0 2.0 0.00 0.00 0.00 50 1027.8
20240423150059 61 119 0.0 3.0 0.00 0.00 0.00 49 1027.7
20240423144553 61 294 0.0 3.0 0.00 0.00 0.00 49 1027.7
20240423143104 62 265 1.0 6.0 0.00 0.00 0.00 48 1027.8
20240423141555 62 0 1.0 3.0 0.00 0.00 0.00 48 1027.8
20240423140115 63 0 0.0 4.0 0.00 0.00 0.00 47 1028.0
20240423134555 63 239 0.0 3.0 0.00 0.00 0.00 46 1028.1
20240423133056 63 246 0.0 2.0 0.00 0.00 0.00 45 1028.0
20240423131555 63 0 0.0 4.0 0.00 0.00 0.00 45 1027.8
20240423130054 63 245 0.0 3.0 0.00 0.00 0.00 45 1027.7
20240423124601 63 238 0.0 2.0 0.00 0.00 0.00 45 1027.6
20240423123053 63 0 0.0 1.0 0.00 0.00 0.00 45 1027.5
20240423121553 63 0 0.0 2.0 0.00 0.00 0.00 45 1027.4
20240423120054 63 157 0.0 2.0 0.00 0.00 0.00 44 1027.4
20240423114555 64 0 0.0 2.0 0.00 0.00 0.00 44 1027.3
20240423113056 63 0 0.0 1.0 0.00 0.00 0.00 44 1027.2
20240423111558 64 0 0.0 1.0 0.00 0.00 0.00 43 1027.1
20240423110105 65 0 0.0 2.0 0.00 0.00 0.00 41 1027.1
20240423104608 65 0 0.0 3.0 0.00 0.00 0.00 40 1027.0
20240423103054 65 214 0.0 4.0 0.00 0.00 0.00 40 1026.9
20240423101555 66 0 0.0 2.0 0.00 0.00 0.00 38 1026.6
20240423100100 67 0 0.0 2.0 0.00 0.00 0.00 37 1026.4
20240423094555 67 253 0.0 2.0 0.00 0.00 0.00 36 1026.2
20240423093056 67 0 0.0 2.0 0.00 0.00 0.00 35 1026.0
20240423091557 68 0 0.0 2.0 0.00 0.00 0.00 34 1026.0
20240423090100 69 0 0.0 2.0 0.00 0.00 0.00 33 1026.0
20240423084554 69 331 0.0 3.0 0.00 0.00 0.00 32 1026.0
20240423083122 70 0 0.0 2.0 0.00 0.00 0.00 32 1025.9
20240423081626 70 232 0.0 4.0 0.00 0.00 0.00 31 1026.0
20240423080055 70 211 1.0 3.0 0.00 0.00 0.00 31 1026.0
20240423074557 71 263 1.0 7.0 0.00 0.00 0.00 31 1026.1
20240423073101 71 241 1.0 4.0 0.00 0.00 0.00 30 1026.0
20240423071555 71 40 0.0 3.0 0.00 0.00 0.00 31 1026.1
20240423070054 71 225 0.0 5.0 0.00 0.00 0.00 31 1026.4
20240423064557 70 13 0.0 4.0 0.00 0.00 0.00 32 1026.3
20240423063053 71 0 1.0 4.0 0.00 0.00 0.00 31 1026.4
20240423061556 72 69 1.0 5.0 0.00 0.00 0.00 31 1026.5
20240423060055 71 0 0.0 3.0 0.00 0.00 0.00 32 1026.6
20240423054601 71 236 0.0 5.0 0.00 0.00 0.00 32 1026.9
20240423053109 71 265 1.0 9.0 0.00 0.00 0.00 33 1027.0
20240423051621 71 347 0.0 4.0 0.00 0.00 0.00 33 1027.2
20240423050057 70 192 0.0 5.0 0.00 0.00 0.00 35 1027.7
20240423044558 70 196 1.0 5.0 0.00 0.00 0.00 36 1028.0
20240423043056 69 266 1.0 3.0 0.00 0.00 0.00 36 1028.1
20240423041559 68 0 1.0 5.0 0.00 0.00 0.00 37 1028.5
20240423040058 68 360 1.0 4.0 0.00 0.00 0.00 35 1028.7
20240423034556 67 309 1.0 6.0 0.00 0.00 0.00 38 1029.1
20240423033115 67 287 1.0 5.0 0.00 0.00 0.00 40 1029.6
20240423031555 67 286 1.0 6.0 0.00 0.00 0.00 41 1029.6
20240423030109 66 236 1.0 3.0 0.00 0.00 0.00 42 1029.8
20240423024600 65 282 1.0 5.0 0.00 0.00 0.00 42 1030.0
20240423023057 65 313 1.0 7.0 0.00 0.00 0.00 43 1030.2
20240423021557 64 92 2.0 6.0 0.00 0.00 0.00 44 1030.6
20240423020058 63 19 1.0 6.0 0.00 0.00 0.00 46 1030.7
20240423014555 62 316 1.0 5.0 0.00 0.00 0.00 47 1030.8
20240423013055 62 231 1.0 5.0 0.00 0.00 0.00 48 1031.1
20240423011552 61 136 0.0 3.0 0.00 0.00 0.00 51 1031.1
20240423010105 59 220 0.0 3.0 0.00 0.00 0.00 55 1031.2
20240423004554 57 265 0.0 5.0 0.00 0.00 0.00 60 1031.2
20240423003104 56 0 0.0 3.0 0.00 0.00 0.00 66 1031.3
20240423001601 54 194 0.0 3.0 0.00 0.00 0.00 68 1031.2
20240423000052 52 151 0.0 2.0 0.00 0.00 0.00 73 1031.0
20240422234602 49 0 0.0 1.0 0.00 0.00 0.00 77 1030.9
20240422233054 48 0 0.0 1.0 0.00 0.00 0.00 78 1031.0
20240422231553 47 185 0.0 2.0 0.00 0.00 0.00 79 1030.8
20240422230054 46 0 0.0 0.0 0.00 0.00 0.00 79 1030.8
20240422224616 46 0 0.0 0.0 0.00 0.00 0.00 78 1030.5
20240422223102 46 0 0.0 1.0 0.00 0.00 0.00 77 1030.6
20240422221553 47 0 0.0 2.0 0.00 0.00 0.00 76 1030.4
20240422220056 47 0 0.0 1.0 0.00 0.00 0.00 76 1030.4
20240422214555 47 0 0.0 1.0 0.00 0.00 0.00 77 1030.4